ASL765 LTFM-LYBE

Flight info

Callsign ASL765
Flight time N/A
Altitude 38000
Route VADEN1D/35L VADEN N618 BAKLO DCT XANEX DCT UTEKA DCT OSVIX
Aircraft A319/M-SDE3FGHIRWY/LB1

Departure

Time N/A
Airport İstanbul Airport (LTFM)

Arrival

Time 2026-04-30 18:34
Airport Belgrade Nikola Tesla Airport (LYBE)
Time Latitude Longitude Altitude Speed Heading
2026-04-30 17:39 42.21953 26.98454 38137 ft 394 kts 306°
2026-04-30 17:42 42.40387 26.70493 38217 ft 400 kts 307°
2026-04-30 17:43 42.49609 26.56394 38224 ft 400 kts 307°
2026-04-30 17:44 42.54878 26.47694 38239 ft 393 kts 296°
2026-04-30 17:44 42.58756 26.37923 38234 ft 392 kts 295°
2026-04-30 17:47 42.70298 26.08607 38260 ft 391 kts 295°
2026-04-30 17:48 42.79230 25.85640 38251 ft 395 kts 295°
2026-04-30 17:50 42.89518 25.59042 38288 ft 398 kts 295°
2026-04-30 17:52 42.97214 25.38959 38299 ft 400 kts 295°
2026-04-30 17:54 43.08744 25.08602 38330 ft 400 kts 295°
2026-04-30 17:56 43.17751 24.82303 38338 ft 397 kts 291°
2026-04-30 17:58 43.24317 24.61432 38356 ft 397 kts 291°
2026-04-30 18:00 43.33024 24.33538 38335 ft 399 kts 291°
2026-04-30 18:01 43.38478 24.15983 38336 ft 400 kts 291°
2026-04-30 18:02 43.44978 23.94816 38326 ft 401 kts 291°
2026-04-30 18:04 43.51457 23.73606 38318 ft 402 kts 291°
2026-04-30 18:06 43.60060 23.45115 38327 ft 403 kts 291°
2026-04-30 18:08 43.67556 23.20048 38323 ft 403 kts 291°
2026-04-30 18:10 43.76047 22.91344 38320 ft 404 kts 291°
2026-04-30 18:11 43.83473 22.65979 36631 ft 422 kts 291°
2026-04-30 18:12 43.86767 22.54657 35006 ft 416 kts 291°
2026-04-30 18:13 43.88909 22.47278 34094 ft 408 kts 291°
2026-04-30 18:13 43.91757 22.37756 32879 ft 396 kts 296°
2026-04-30 18:14 43.94654 22.29888 31806 ft 387 kts 296°
2026-04-30 18:15 43.98260 22.20067 30479 ft 377 kts 296°
2026-04-30 18:15 44.01751 22.10494 29208 ft 364 kts 297°
2026-04-30 18:16 44.04013 22.04288 28443 ft 356 kts 297°
2026-04-30 18:16 44.06227 21.98185 27681 ft 350 kts 297°
2026-04-30 18:17 44.07321 21.95171 27292 ft 347 kts 298°
2026-04-30 18:17 44.08400 21.92194 26915 ft 344 kts 298°
2026-04-30 18:17 44.10530 21.86307 26155 ft 337 kts 298°
2026-04-30 18:18 44.11577 21.83397 25757 ft 335 kts 298°
2026-04-30 18:18 44.12617 21.80507 25374 ft 333 kts 298°
2026-04-30 18:18 44.13650 21.77641 24980 ft 330 kts 298°
2026-04-30 18:18 44.14678 21.74788 24588 ft 329 kts 299°
2026-04-30 18:19 44.15700 21.71944 24166 ft 328 kts 299°
2026-04-30 18:19 44.16718 21.69103 23742 ft 327 kts 299°
2026-04-30 18:19 44.17728 21.66286 23297 ft 324 kts 300°
2026-04-30 18:19 44.18716 21.63524 22917 ft 321 kts 299°
2026-04-30 18:20 44.19708 21.60749 22516 ft 318 kts 300°
2026-04-30 18:20 44.20691 21.57999 22108 ft 315 kts 300°
2026-04-30 18:20 44.21667 21.55268 21717 ft 313 kts 300°
2026-04-30 18:20 44.22633 21.52561 21332 ft 311 kts 300°
2026-04-30 18:21 44.23594 21.49869 20952 ft 309 kts 300°
2026-04-30 18:21 44.24549 21.47188 20549 ft 308 kts 300°
2026-04-30 18:21 44.25497 21.44520 20168 ft 306 kts 300°
2026-04-30 18:21 44.26443 21.41857 19779 ft 305 kts 300°
2026-04-30 18:22 44.27385 21.39207 19397 ft 306 kts 300°
2026-04-30 18:22 44.29491 21.33319 18530 ft 363 kts 299°
2026-04-30 18:22 44.30612 21.30167 18037 ft 367 kts 299°
2026-04-30 18:23 44.31748 21.26976 17575 ft 367 kts 301°
2026-04-30 18:23 44.33233 21.24082 17109 ft 371 kts 315°
2026-04-30 18:23 44.35280 21.21677 16490 ft 395 kts 324°
2026-04-30 18:23 44.37488 21.19348 15864 ft 400 kts 325°
2026-04-30 18:24 44.41926 21.14682 14625 ft 397 kts 325°
2026-04-30 18:24 44.44118 21.12349 14006 ft 395 kts 323°
2026-04-30 18:24 44.45971 21.09525 13350 ft 395 kts 307°
2026-04-30 18:25 44.47430 21.06400 13035 ft 379 kts 305°
2026-04-30 18:25 44.50137 21.00547 12771 ft 338 kts 305°
2026-04-30 18:25 44.51384 20.97859 12582 ft 321 kts 305°
2026-04-30 18:26 44.53704 20.92851 12001 ft 295 kts 305°
2026-04-30 18:26 44.54811 20.90454 11519 ft 292 kts 305°
2026-04-30 18:26 44.55910 20.88073 11005 ft 290 kts 305°
2026-04-30 18:27 44.58094 20.83344 10002 ft 288 kts 304°
2026-04-30 18:27 44.59194 20.81016 9324 ft 285 kts 305°
2026-04-30 18:28 44.61316 20.76388 8097 ft 280 kts 305°
2026-04-30 18:28 44.62357 20.74086 7474 ft 278 kts 305°
2026-04-30 18:28 44.64415 20.69566 6451 ft 274 kts 306°
2026-04-30 18:29 44.65448 20.67312 6014 ft 275 kts 306°
2026-04-30 18:29 44.68552 20.60717 5095 ft 264 kts 306°
2026-04-30 18:30 44.70171 20.57095 4492 ft 262 kts 306°
2026-04-30 18:30 44.72436 20.52034 3658 ft 260 kts 306°
2026-04-30 18:31 44.73393 20.49891 3306 ft 257 kts 306°
2026-04-30 18:31 44.75251 20.45727 2604 ft 239 kts 306°
2026-04-30 18:32 44.76900 20.42025 1994 ft 204 kts 307°
2026-04-30 18:32 44.77622 20.40403 1753 ft 186 kts 307°
2026-04-30 18:32 44.78839 20.37665 1275 ft 142 kts 308°
2026-04-30 18:33 44.79341 20.36540 1075 ft 128 kts 306°
2026-04-30 18:33 44.80230 20.34549 738 ft 121 kts 304°
2026-04-30 18:33 44.80674 20.33552 580 ft 119 kts 304°
2026-04-30 18:34 44.81109 20.32567 389 ft 117 kts 304°
2026-04-30 18:34 44.81814 20.30977 309 ft 54 kts 302°
2026-04-30 18:34 44.81928 20.30722 308 ft 22 kts 302°
2026-04-30 18:35 44.82021 20.30511 305 ft 28 kts 302°
2026-04-30 18:35 44.82132 20.30249 307 ft 34 kts 298°
2026-04-30 18:35 44.82170 20.30003 306 ft 27 kts 271°
2026-04-30 18:36 44.82103 20.29649 310 ft 20 kts 213°
2026-04-30 18:36 44.82011 20.29566 308 ft 16 kts 212°
2026-04-30 18:36 44.82029 20.29429 308 ft 13 kts 323°
2026-04-30 18:37 44.82055 20.29376 309 ft 3 kts 300°
2026-04-30 18:37 44.82058 20.29367 309 ft 0 kts 300°